TimeCDT,TemperatureF,Dew PointF,Humidity,Sea Level PressureIn,VisibilityMPH,Wind Direction,Wind SpeedMPH,Gust SpeedMPH,PrecipitationIn,Events,Conditions,WindDirDegrees,DateUTC
12:33 AM,37.4,17.6,45,30.08,10.0,Calm,Calm,-,N/A,,Clear,0,2012-10-31 05:33:00
12:53 AM,35.6,19.4,52,30.08,10.0,Calm,Calm,-,N/A,,Clear,0,2012-10-31 05:53:00
1:13 AM,35.6,19.4,52,30.08,10.0,Calm,Calm,-,N/A,,Clear,0,2012-10-31 06:13:00
1:33 AM,32.0,21.2,64,30.08,10.0,Calm,Calm,-,N/A,,Clear,0,2012-10-31 06:33:00
1:52 AM,30.2,21.2,69,30.07,10.0,Calm,Calm,-,N/A,,Clear,0,2012-10-31 06:52:00
2:13 AM,33.8,21.2,60,30.07,10.0,Calm,Calm,-,N/A,,Clear,0,2012-10-31 07:13:00
2:33 AM,32.0,21.2,64,30.06,10.0,Calm,Calm,-,N/A,,Clear,0,2012-10-31 07:33:00
2:52 AM,32.0,21.2,64,30.07,10.0,Calm,Calm,-,N/A,,Clear,0,2012-10-31 07:52:00
3:13 AM,30.2,19.4,64,30.06,10.0,Calm,Calm,-,N/A,,Clear,0,2012-10-31 08:13:00
3:33 AM,32.0,19.4,60,30.06,10.0,Calm,Calm,-,N/A,,Clear,0,2012-10-31 08:33:00
3:52 AM,32.0,19.4,60,30.06,10.0,Calm,Calm,-,N/A,,Clear,0,2012-10-31 08:52:00
4:13 AM,28.4,21.2,74,30.06,10.0,WNW,3.5,-,N/A,,Clear,290,2012-10-31 09:13:00
4:33 AM,28.4,21.2,74,30.06,10.0,Calm,Calm,-,N/A,,Clear,0,2012-10-31 09:33:00
4:52 AM,26.6,21.2,80,30.06,10.0,Calm,Calm,-,N/A,,Clear,0,2012-10-31 09:52:00
5:13 AM,26.6,21.2,80,30.05,10.0,Calm,Calm,-,N/A,,Clear,0,2012-10-31 10:13:00
5:33 AM,26.6,21.2,80,30.06,10.0,Calm,Calm,-,N/A,,Clear,0,2012-10-31 10:33:00
5:52 AM,28.4,21.2,74,30.05,10.0,Calm,Calm,-,N/A,,Mostly Cloudy,0,2012-10-31 10:52:00
6:13 AM,28.4,21.2,74,30.05,10.0,Calm,Calm,-,N/A,,Scattered Clouds,0,2012-10-31 11:13:00
6:33 AM,26.6,21.2,80,30.05,10.0,Calm,Calm,-,N/A,,Clear,0,2012-10-31 11:33:00
6:52 AM,28.4,21.2,74,30.05,10.0,NW,3.5,-,N/A,,Clear,320,2012-10-31 11:52:00
7:13 AM,28.4,21.2,74,30.04,10.0,Calm,Calm,-,N/A,,Clear,0,2012-10-31 12:13:00
7:33 AM,28.4,21.2,74,30.05,10.0,Calm,Calm,-,N/A,,Clear,0,2012-10-31 12:33:00
7:53 AM,26.6,21.2,80,30.05,10.0,Calm,Calm,-,N/A,,Clear,0,2012-10-31 12:53:00
8:13 AM,28.4,21.2,74,30.05,10.0,Calm,Calm,-,N/A,,Scattered Clouds,0,2012-10-31 13:13:00
8:33 AM,30.2,21.2,69,30.05,10.0,Calm,Calm,-,N/A,,Scattered Clouds,0,2012-10-31 13:33:00
8:53 AM,33.8,21.2,60,30.05,10.0,Calm,Calm,-,N/A,,Scattered Clouds,0,2012-10-31 13:53:00
9:13 AM,33.8,23.0,65,30.05,10.0,Calm,Calm,-,N/A,,Mostly Cloudy,0,2012-10-31 14:13:00
9:33 AM,35.6,23.0,60,30.05,10.0,Calm,Calm,-,N/A,,Overcast,0,2012-10-31 14:33:00
9:53 AM,37.4,21.2,52,30.04,10.0,Calm,Calm,-,N/A,,Overcast,0,2012-10-31 14:53:00
10:13 AM,37.4,23.0,56,30.04,10.0,Calm,Calm,-,N/A,,Overcast,0,2012-10-31 15:13:00
10:32 AM,39.2,21.2,49,30.05,10.0,Calm,Calm,-,N/A,,Overcast,0,2012-10-31 15:32:00
10:53 AM,41.0,21.2,45,30.05,10.0,WNW,4.6,-,N/A,,Mostly Cloudy,290,2012-10-31 15:53:00
11:18 AM,42.8,21.2,42,30.05,10.0,WNW,4.6,-,N/A,,Scattered Clouds,290,2012-10-31 16:18:00
11:32 AM,42.8,17.6,36,30.04,10.0,Calm,Calm,-,N/A,,Scattered Clouds,0,2012-10-31 16:32:00
11:53 AM,44.6,19.4,37,30.04,10.0,Calm,Calm,-,N/A,,Clear,0,2012-10-31 16:53:00
12:13 PM,46.4,23.0,40,30.04,10.0,West,3.5,-,N/A,,Clear,280,2012-10-31 17:13:00
12:32 PM,46.4,24.8,43,30.03,10.0,NW,3.5,-,N/A,,Clear,320,2012-10-31 17:32:00
12:53 PM,48.2,24.8,40,30.02,10.0,WNW,3.5,-,N/A,,Clear,300,2012-10-31 17:53:00
1:18 PM,50.0,19.4,30,30.01,10.0,NNW,3.5,-,N/A,,Clear,340,2012-10-31 18:18:00
2:12 PM,51.8,19.4,28,29.99,10.0,Calm,Calm,-,N/A,,Clear,0,2012-10-31 19:12:00
2:53 PM,51.8,19.4,28,29.97,10.0,Calm,Calm,-,N/A,,Clear,0,2012-10-31 19:53:00
3:13 PM,53.6,19.4,26,29.97,10.0,West,6.9,-,N/A,,Clear,280,2012-10-31 20:13:00
3:33 PM,53.6,19.4,26,29.97,10.0,Calm,Calm,-,N/A,,Clear,0,2012-10-31 20:33:00
3:53 PM,53.6,21.2,28,29.97,10.0,SW,3.5,-,N/A,,Clear,220,2012-10-31 20:53:00
4:13 PM,53.6,21.2,28,29.96,10.0,West,6.9,-,N/A,,Clear,260,2012-10-31 21:13:00
4:33 PM,53.6,21.2,28,29.97,10.0,WNW,3.5,-,N/A,,Clear,300,2012-10-31 21:33:00
4:52 PM,53.6,21.2,28,29.96,10.0,Calm,Calm,-,N/A,,Clear,0,2012-10-31 21:52:00
5:13 PM,53.6,23.0,30,29.96,10.0,West,4.6,-,N/A,,Clear,260,2012-10-31 22:13:00
5:33 PM,53.6,24.8,33,29.96,7.0,West,3.5,-,N/A,,Scattered Clouds,260,2012-10-31 22:33:00
5:52 PM,51.8,26.6,38,29.95,10.0,Calm,Calm,-,N/A,,Scattered Clouds,0,2012-10-31 22:52:00
6:13 PM,50.0,28.4,43,29.96,10.0,Calm,Calm,-,N/A,,Scattered Clouds,0,2012-10-31 23:13:00
6:33 PM,50.0,28.4,43,29.95,10.0,Calm,Calm,-,N/A,,Scattered Clouds,0,2012-10-31 23:33:00
6:52 PM,50.0,24.8,37,29.95,10.0,Calm,Calm,-,N/A,,Scattered Clouds,0,2012-10-31 23:52:00
7:13 PM,51.8,24.8,35,29.93,10.0,SSW,3.5,-,N/A,,Clear,210,2012-11-01 00:13:00
7:33 PM,48.2,28.4,46,29.94,10.0,Calm,Calm,-,N/A,,Scattered Clouds,0,2012-11-01 00:33:00
7:53 PM,48.2,30.2,50,29.95,10.0,Calm,Calm,-,N/A,,Scattered Clouds,0,2012-11-01 00:53:00
8:13 PM,46.4,28.4,50,29.95,10.0,South,3.5,-,N/A,,Clear,190,2012-11-01 01:13:00
8:33 PM,46.4,28.4,50,29.95,10.0,Calm,Calm,-,N/A,,Clear,0,2012-11-01 01:33:00
8:53 PM,46.4,30.2,53,29.95,10.0,Calm,Calm,-,N/A,,Clear,0,2012-11-01 01:53:00
9:13 PM,44.6,30.2,57,29.95,10.0,Calm,Calm,-,N/A,,Mostly Cloudy,0,2012-11-01 02:13:00
9:32 PM,44.6,28.4,53,29.94,10.0,South,3.5,-,N/A,,Mostly Cloudy,190,2012-11-01 02:32:00
9:53 PM,44.6,28.4,53,29.94,10.0,South,3.5,-,N/A,,Scattered Clouds,180,2012-11-01 02:53:00
10:13 PM,44.6,28.4,53,29.94,10.0,South,3.5,-,N/A,,Clear,190,2012-11-01 03:13:00
10:32 PM,42.8,28.4,57,29.94,10.0,South,3.5,-,N/A,,Scattered Clouds,190,2012-11-01 03:32:00
10:53 PM,44.6,28.4,53,29.95,10.0,SSW,3.5,-,N/A,,Mostly Cloudy,200,2012-11-01 03:53:00
11:13 PM,44.6,28.4,53,29.94,10.0,Calm,Calm,-,N/A,,Mostly Cloudy,0,2012-11-01 04:13:00
11:32 PM,44.6,28.4,53,29.93,10.0,South,4.6,-,N/A,,Mostly Cloudy,190,2012-11-01 04:32:00
11:53 PM,44.6,30.2,57,29.93,10.0,Calm,Calm,-,N/A,,Overcast,0,2012-11-01 04:53:00